Location: Stara Lesna
(49.1528°N, 20.2911°E)
Time: 09:06:56
(UTC+02:00)

Cosmos 1400 Rocket - Pass Details

Date: 21 September 2019
Orbit: 522 x 568 km, 81.2° (Epoch: 15 October)

Event Time Altitude Azimuth Distance (km) Brightness Sun altitude
Exits shadow 03:31:22 31° 101° (E) 952 4.3 -26.9°
Maximum altitude 03:31:37 31° 93° (E) 946 4.4 -26.9°
Drops below altitude 10° 03:35:04 10° 31° (NNE) 1,773 6.3 -26.4°
Sets 03:37:22 0° 21° (NNE) 2,666 7.2 -26.1°
